This is the latest recevied weather packets stored in our database for station/object KI7MOQ. If no packets are shown the sender has not sent any weather packets the latest 10 day(s).
| Time | Temp. | Humidity | Pressure | Rain* | Wind** | Luminosity | Snow |
|---|---|---|---|---|---|---|---|
| 1777858878 | 30.56° C | 32% | 1008.8 hPa | 0 mm | - | 13 W/m² | - |
| 1777858575 | 30° C | 32% | 1008.8 hPa | 0 mm | - | 15 W/m² | - |
| 1777858273 | 30° C | 32% | 1008.9 hPa | 0 mm | - | 14 W/m² | - |
| 1777857970 | 30.56° C | 32% | 1008.8 hPa | 0 mm | - | 14 W/m² | - |
| 1777857668 | 30.56° C | 32% | 1008.9 hPa | 0 mm | - | 14 W/m² | - |
| 1777857364 | 30.56° C | 31% | 1009 hPa | 0 mm | - | 16 W/m² | - |
| 1777857060 | 30.56° C | 31% | 1009.1 hPa | 0 mm | - | 16 W/m² | - |
| 1777856756 | 30.56° C | 31% | 1009.1 hPa | 0 mm | - | 17 W/m² | - |
| 1777856452 | 30.56° C | 32% | 1009.1 hPa | 0 mm | - | 17 W/m² | - |
| 1777856149 | 31.11° C | 31% | 1009.1 hPa | 0 mm | - | 17 W/m² | - |
| 1777855847 | 31.11° C | 32% | 1009.3 hPa | 0 mm | - | 17 W/m² | - |
| 1777855544 | 31.11° C | 32% | 1009.2 hPa | 0 mm | - | 17 W/m² | - |
| 1777855241 | 31.11° C | 31% | 1009.3 hPa | 0 mm | - | 17 W/m² | - |
| 1777854937 | 31.11° C | 31% | 1009.1 hPa | 0 mm | - | 18 W/m² | - |
| 1777854634 | 31.11° C | 30% | 1009.1 hPa | 0 mm | - | 18 W/m² | - |
| 1777854331 | 31.11° C | 31% | 1009.3 hPa | 0 mm | - | 18 W/m² | - |
| 1777854029 | 31.11° C | 31% | 1009.4 hPa | 0 mm | - | 20 W/m² | - |
| 1777853726 | 31.11° C | 30% | 1009.4 hPa | 0 mm | - | 23 W/m² | - |
| 1777853422 | 31.11° C | 29% | 1009.4 hPa | 0 mm | - | 19 W/m² | - |
| 1777853120 | 31.67° C | 30% | 1009.5 hPa | 0 mm | - | 20 W/m² | - |
| 1777852817 | 31.11° C | 29% | 1009.4 hPa | 0 mm | - | 21 W/m² | - |
| 1777852515 | 31.11° C | 29% | 1009.5 hPa | 0 mm | - | 22 W/m² | - |
| 1777852212 | 31.11° C | 29% | 1009.4 hPa | 0 mm | - | 74 W/m² | - |
| 1777851909 | 31.67° C | 28% | 1009.6 hPa | 0 mm | - | 29 W/m² | - |
| 1777851608 | 31.67° C | 29% | 1009.6 hPa | 0 mm | - | 282 W/m² | - |
* Rain latest hour (hover to see other rain measurements)
** Current wind speed in m/s (hover to see current wind gust speed)